Flag for Germany Weather past 2 weeks in Wiesbaden, Hesse, Germany

Now
63 °F

Clear.


Feels Like: 63 °F
Forecast: 58 / 90 °F
Wind: No wind

Location: Wiesbaden Airport

Current Time: Jul 6, 2015 at 5:13:17 AM

Latest Report: Jul 6, 2015 at 3:58 AM


Visibility: N/A

Pressure: 30.13 "Hg

Humidity: 80%

Dew point: 57 °F

Location of WiesbadenLocation

Historic Weather in Wiesbaden — Graph

°F

Wiesbaden temperature yesterday

Maximum temperature yesterday: 100 °F (at 5:58 PM)
Minimum temperature yesterday: 72 °F (at 11:58 PM)
Average temperature yesterday: 86 °F

Past Weeks' High & Low Weather Summary

 TemperatureHumidityPressure
High100 °F (Jul 5, 5:58 PM)100% (Jun 22, 12:59 AM)30.24 "Hg (Jun 22, 12:59 AM)
Low48 °F (Jun 23, 4:58 AM)22% (Jul 5, 5:58 PM)29.68 "Hg (Jun 23, 12:04 AM)
Average71 °F65%30.07 "Hg
* Reported Jun 21 3:45 AM — Jul 6 3:58 AM, Wiesbaden, Weather by CustomWeather, © 2015

Note: Actual official high and low records may vary slightly from our data, if they occured in-between our weather recording intervals... More about our weather records

Advertising

Wiesbaden weather history for previous 24 hours

 ConditionsComfort  
Time TempWeatherWind HumidityBarometerVisibility
3:58 AM
Mon, Jul 6
63 °FClear.No wind80%30.13 "HgN/A
2:58 AM66 °FClear.3 mph73%30.12 "HgN/A
1:58 AM67 °FClear.5 mph73%30.10 "HgN/A
12:59 AM70 °FPartly cloudy.8 mph69%30.07 "HgN/A
12:58 AM70 °FPassing clouds.9 mph69%30.05 "HgN/A
11:58 PM
Sun, Jul 5
72 °FClear.6 mph69%29.99 "HgN/A
10:58 PM75 °FClear.8 mph69%29.95 "HgN/A
9:58 PM76 °FSunny.9 mph67%29.92 "HgN/A
8:58 PM82 °FSunny.14 mph59%29.86 "HgN/A
7:58 PM97 °FSunny.8 mph27%29.83 "HgN/A
6:58 PM99 °FSunny.12 mph25%29.83 "HgN/A
5:58 PM100 °FSunny.10 mph22%29.82 "HgN/A
4:58 PM100 °FSunny.10 mph26%29.85 "HgN/A
4:04 PM97 °FThundershowers. Passing clouds.13 mph32%29.89 "HgN/A
3:49 PM93 °FThunderstorms. Passing clouds.15 mph41%29.89 "HgN/A
2:58 PM99 °FSunny.12 mph31%29.90 "HgN/A
1:58 PM95 °FSunny.8 mph37%29.94 "HgN/A
12:58 PM95 °FSunny.7 mph36%29.96 "HgN/A
11:58 AM92 °FSunny.6 mph39%29.96 "HgN/A
10:58 AM89 °FSunny.7 mph47%29.99 "HgN/A
9:58 AM86 °FSunny.8 mph51%30.00 "HgN/A
8:58 AM82 °FSunny.9 mph61%30.01 "HgN/A
7:58 AM79 °FSunny.3 mph63%30.03 "HgN/A
6:58 AM77 °FSunny.No wind69%30.03 "HgN/A
5:58 AM76 °FClear.2 mph67%30.03 "HgN/A
Weather by CustomWeather, © 2015

See weather overviewHow to use our weather pages